CZ-3B R/B (44638 NORAD) Tracking and Keplerian Element Data

This shows tracking and keplerian element data for the satellite.

Feedback or suggestion? Click here.




ElementValue
Catalog44638
NameCZ-3B R/B
Epoch Orbit60
Epoch Day316.39878424
Epoch Year2019
RAAN244.0433
Inclination26.9283
Eccentricity0.7258476
Argument of Perigee195.2142
Mean Anonmoly118.4038
Mean Motion2.34784255
Decay Rate0.00016903
L11 44638U 19070B 19316.39878424 .00016903 12637-5 72040-3 0 9996
L22 44638 26.9283 244.0433 7258476 195.2142 118.4038 2.34784255 601

Live tracking and technical data element details for CZ-3B R/B (NORAD 44638). CZ-3B R/B can be tracked NOW for your location showing map with azimuth and elevation plus other details from your city location.

Track the satellite on the map from your city or location and see movement details for azimuth, elevation, latitude, longitude, range, height, and movement on the map or in text.







IsCatalogInMostPopularTable: catalog: 44638, numindb: 7
Update: records affected: 1



GetName: 44638 CZ-3B R/B

Hit Count: updated at: Thu, 14 Nov 2019 06:06:12 GMT